Time,TemperatureF,DewpointF,PressureIn,WindDirection,WindDirectionDegrees,WindSpeedMPH,WindSpeedGustMPH,Humidity,HourlyPrecipIn,Conditions,Clouds,dailyrainin,SolarRadiationWatts/m^2,SoftwareType,DateUTC
2017-03-29 00:03:00,74.9,68.3,30.04,SE,134,0.0,0.0,80,0.00,,---,0.00,0.00,VWS V14.01,2017-03-29 04:03:00,
2017-03-29 00:08:00,74.9,68.3,30.04,SE,134,0.0,0.0,80,0.00,,---,0.00,0.00,VWS V14.01,2017-03-29 04:08:00,
2017-03-29 00:13:00,74.8,68.2,30.04,SE,134,0.0,0.0,80,0.00,,---,0.00,0.00,VWS V14.01,2017-03-29 04:13:00,
2017-03-29 00:18:00,74.8,68.2,30.04,SE,134,0.0,0.0,80,0.00,,---,0.00,0.00,VWS V14.01,2017-03-29 04:18:00,
2017-03-29 00:23:00,74.7,68.1,30.04,SE,134,0.0,0.0,80,0.00,,---,0.00,0.00,VWS V14.01,2017-03-29 04:23:00,
2017-03-29 00:28:00,74.7,68.1,30.04,SE,134,0.0,0.0,80,0.00,,---,0.00,0.00,VWS V14.01,2017-03-29 04:28:00,
2017-03-29 00:33:00,74.7,68.5,30.04,SE,134,0.0,0.0,81,0.00,,---,0.00,0.00,VWS V14.01,2017-03-29 04:33:00,
2017-03-29 00:38:00,74.6,68.4,30.04,SE,134,0.0,0.0,81,0.00,,---,0.00,0.00,VWS V14.01,2017-03-29 04:38:00,
2017-03-29 00:43:00,74.6,68.4,30.04,SE,134,0.0,0.0,81,0.00,,---,0.00,0.00,VWS V14.01,2017-03-29 04:43:00,
2017-03-29 00:48:00,74.6,68.4,30.04,SE,134,0.0,0.0,81,0.00,,---,0.00,0.00,VWS V14.01,2017-03-29 04:48:00,
2017-03-29 00:53:00,74.7,68.5,30.04,SE,134,0.0,0.0,81,0.00,,---,0.00,0.00,VWS V14.01,2017-03-29 04:53:00,
2017-03-29 00:58:00,74.6,68.4,30.04,SE,134,0.0,0.0,81,0.00,,---,0.00,0.00,VWS V14.01,2017-03-29 04:58:00,
2017-03-29 01:03:00,74.6,68.4,30.03,SE,134,0.0,0.0,81,0.00,,---,0.00,0.00,VWS V14.01,2017-03-29 05:03:00,
2017-03-29 01:08:00,74.6,68.4,30.03,SE,134,0.0,0.0,81,0.00,,---,0.00,0.00,VWS V14.01,2017-03-29 05:08:00,
2017-03-29 01:13:00,74.5,68.3,30.03,SE,134,0.0,0.0,81,0.00,,---,0.00,0.00,VWS V14.01,2017-03-29 05:13:00,
2017-03-29 01:18:00,74.4,68.2,30.03,SE,134,0.0,0.0,81,0.00,,---,0.00,0.00,VWS V14.01,2017-03-29 05:18:00,
2017-03-29 01:23:00,74.5,68.3,30.03,SE,134,0.0,2.0,81,0.00,,---,0.00,0.00,VWS V14.01,2017-03-29 05:23:00,
2017-03-29 01:28:00,74.7,68.5,30.03,SE,134,0.0,2.0,81,0.00,,---,0.00,0.00,VWS V14.01,2017-03-29 05:28:00,
2017-03-29 01:33:00,74.7,68.5,30.03,SE,134,0.0,0.0,81,0.00,,---,0.00,0.00,VWS V14.01,2017-03-29 05:33:00,
2017-03-29 01:38:00,74.6,68.4,30.03,SE,134,0.0,0.0,81,0.00,,---,0.00,0.00,VWS V14.01,2017-03-29 05:38:00,
2017-03-29 01:43:00,74.5,68.3,30.03,SE,134,0.0,0.0,81,0.00,,---,0.00,0.00,VWS V14.01,2017-03-29 05:43:00,
2017-03-29 01:48:00,74.5,68.3,30.03,SE,134,0.0,0.0,81,0.00,,---,0.00,0.00,VWS V14.01,2017-03-29 05:48:00,
2017-03-29 01:53:00,74.5,68.3,30.03,SE,134,0.0,0.0,81,0.00,,---,0.00,0.00,VWS V14.01,2017-03-29 05:53:00,
2017-03-29 01:58:00,74.5,68.3,30.02,SE,134,0.0,0.0,81,0.00,,---,0.00,0.00,VWS V14.01,2017-03-29 05:58:00,
2017-03-29 02:03:00,74.4,68.2,30.02,SE,134,0.0,0.0,81,0.00,,---,0.00,0.00,VWS V14.01,2017-03-29 06:03:00,
2017-03-29 02:08:00,74.4,68.6,30.02,SE,134,0.0,0.0,82,0.00,,---,0.00,0.00,VWS V14.01,2017-03-29 06:08:00,
2017-03-29 02:13:00,74.3,68.4,30.02,SE,134,0.0,0.0,82,0.00,,---,0.00,0.00,VWS V14.01,2017-03-29 06:13:00,
2017-03-29 02:18:00,74.4,68.6,30.02,SE,134,0.0,0.0,82,0.00,,---,0.00,0.00,VWS V14.01,2017-03-29 06:18:00,
2017-03-29 02:23:00,74.5,68.7,30.02,SE,134,0.0,0.0,82,0.00,,---,0.00,0.00,VWS V14.01,2017-03-29 06:23:00,
2017-03-29 02:28:00,74.7,68.8,30.02,SE,134,0.0,0.0,82,0.00,,---,0.00,0.00,VWS V14.01,2017-03-29 06:28:00,
2017-03-29 02:33:00,74.7,68.8,30.02,SE,134,0.0,0.0,82,0.00,,---,0.00,0.00,VWS V14.01,2017-03-29 06:33:00,
2017-03-29 02:39:00,74.8,68.6,30.02,SE,134,0.0,1.0,81,0.00,,---,0.00,0.00,VWS V14.01,2017-03-29 06:39:00,
2017-03-29 02:44:00,74.9,68.7,30.01,SE,134,0.0,1.0,81,0.00,,---,0.00,0.00,VWS V14.01,2017-03-29 06:44:00,
2017-03-29 02:49:00,74.8,68.6,30.01,SE,134,0.0,1.0,81,0.00,,---,0.00,0.00,VWS V14.01,2017-03-29 06:49:00,
2017-03-29 02:54:00,74.8,68.6,30.01,SE,134,0.0,2.0,81,0.00,,---,0.00,0.00,VWS V14.01,2017-03-29 06:54:00,
2017-03-29 02:59:00,74.9,68.3,30.01,SE,134,0.0,2.0,80,0.00,,---,0.00,0.00,VWS V14.01,2017-03-29 06:59:00,
2017-03-29 03:04:00,75.0,68.4,30.01,SE,134,0.0,2.0,80,0.00,,---,0.00,0.00,VWS V14.01,2017-03-29 07:04:00,
2017-03-29 03:09:00,75.1,68.5,30.01,SE,134,0.0,2.0,80,0.00,,---,0.00,0.00,VWS V14.01,2017-03-29 07:09:00,
2017-03-29 03:14:00,75.1,68.5,30.00,SE,133,0.0,2.0,80,0.00,,---,0.00,0.00,VWS V14.01,2017-03-29 07:14:00,
2017-03-29 03:19:00,75.2,68.6,30.00,SE,134,0.0,2.0,80,0.00,,---,0.00,0.00,VWS V14.01,2017-03-29 07:19:00,
2017-03-29 03:24:00,75.2,68.6,30.00,SE,134,0.0,2.0,80,0.00,,---,0.00,0.00,VWS V14.01,2017-03-29 07:24:00,
2017-03-29 03:29:00,75.2,68.6,30.00,SE,133,0.0,2.0,80,0.00,,---,0.00,0.00,VWS V14.01,2017-03-29 07:29:00,
2017-03-29 03:33:00,75.1,68.5,30.00,SE,133,0.0,0.0,80,0.00,,---,0.00,0.00,VWS V14.01,2017-03-29 07:33:00,
2017-03-29 03:38:00,75.1,68.2,30.00,SE,133,0.0,1.0,79,0.00,,---,0.00,0.00,VWS V14.01,2017-03-29 07:38:00,
2017-03-29 03:43:00,75.2,67.9,29.99,SE,133,0.0,3.0,78,0.00,,---,0.00,0.00,VWS V14.01,2017-03-29 07:43:00,
2017-03-29 03:48:00,75.2,67.5,29.99,SE,133,0.0,3.0,77,0.00,,---,0.00,0.00,VWS V14.01,2017-03-29 07:48:00,
2017-03-29 03:53:00,75.3,68.0,29.99,SE,133,0.0,3.0,78,0.00,,---,0.00,0.00,VWS V14.01,2017-03-29 07:53:00,
2017-03-29 03:58:00,75.3,67.6,29.99,SE,133,0.0,3.0,77,0.00,,---,0.00,0.00,VWS V14.01,2017-03-29 07:58:00,
2017-03-29 04:03:00,75.3,67.6,29.99,SE,133,0.0,0.0,77,0.00,,---,0.00,0.00,VWS V14.01,2017-03-29 08:03:00,
2017-03-29 04:08:00,75.3,67.6,29.99,SE,133,0.0,1.0,77,0.00,,---,0.00,0.00,VWS V14.01,2017-03-29 08:08:00,
2017-03-29 04:13:00,75.2,67.1,29.99,SE,133,0.0,1.0,76,0.00,,---,0.00,0.00,VWS V14.01,2017-03-29 08:13:00,
2017-03-29 04:18:00,75.2,67.5,29.99,SE,133,0.0,1.0,77,0.00,,---,0.00,0.00,VWS V14.01,2017-03-29 08:18:00,
2017-03-29 04:23:00,75.3,67.6,29.99,SE,133,0.0,1.0,77,0.00,,---,0.00,0.00,VWS V14.01,2017-03-29 08:23:00,
2017-03-29 04:28:00,75.2,67.5,29.98,SE,133,0.0,1.0,77,0.00,,---,0.00,0.00,VWS V14.01,2017-03-29 08:28:00,
2017-03-29 04:33:00,75.2,67.1,29.98,SE,135,0.0,5.0,76,0.00,,---,0.00,0.00,VWS V14.01,2017-03-29 08:33:00,
2017-03-29 04:38:00,75.3,67.2,29.98,SE,134,2.0,5.0,76,0.00,,---,0.00,0.00,VWS V14.01,2017-03-29 08:38:00,
2017-03-29 04:43:00,75.4,67.3,29.98,SE,133,0.0,5.0,76,0.00,,---,0.00,0.00,VWS V14.01,2017-03-29 08:43:00,
2017-03-29 04:48:00,75.4,66.9,29.98,SE,133,0.0,6.0,75,0.00,,---,0.00,0.00,VWS V14.01,2017-03-29 08:48:00,
2017-03-29 04:53:00,75.4,67.3,29.98,SE,132,0.0,6.0,76,0.00,,---,0.00,0.00,VWS V14.01,2017-03-29 08:53:00,
2017-03-29 04:58:00,75.4,67.3,29.98,SE,131,0.0,6.0,76,0.00,,---,0.00,0.00,VWS V14.01,2017-03-29 08:58:00,
2017-03-29 05:03:00,75.3,67.2,29.98,SE,131,4.0,5.0,76,0.00,,---,0.00,0.00,VWS V14.01,2017-03-29 09:03:00,
2017-03-29 05:08:00,75.3,66.8,29.98,SE,131,0.0,5.0,75,0.00,,---,0.00,0.00,VWS V14.01,2017-03-29 09:08:00,
2017-03-29 05:13:00,75.3,66.8,29.98,SE,131,0.0,5.0,75,0.00,,---,0.00,0.00,VWS V14.01,2017-03-29 09:13:00,
2017-03-29 05:18:00,75.3,66.8,29.98,SE,131,0.0,5.0,75,0.00,,---,0.00,0.00,VWS V14.01,2017-03-29 09:18:00,
2017-03-29 05:23:00,75.4,66.9,29.98,SE,130,3.0,5.0,75,0.00,,---,0.00,0.00,VWS V14.01,2017-03-29 09:23:00,
2017-03-29 05:28:00,75.5,67.4,29.98,SE,130,0.0,5.0,76,0.00,,---,0.00,0.00,VWS V14.01,2017-03-29 09:28:00,
2017-03-29 05:33:00,75.4,67.3,29.98,SE,129,5.0,5.0,76,0.00,,---,0.00,0.00,VWS V14.01,2017-03-29 09:33:00,
2017-03-29 05:38:00,75.4,67.3,29.98,SE,129,0.0,5.0,76,0.00,,---,0.00,0.00,VWS V14.01,2017-03-29 09:38:00,
2017-03-29 05:43:00,75.2,67.1,29.98,SE,128,0.0,5.0,76,0.00,,---,0.00,0.00,VWS V14.01,2017-03-29 09:43:00,
2017-03-29 05:48:00,75.1,66.6,29.98,SE,128,0.0,5.0,75,0.00,,---,0.00,0.00,VWS V14.01,2017-03-29 09:48:00,
2017-03-29 05:53:00,75.1,67.0,29.98,SE,129,0.0,5.0,76,0.00,,---,0.00,0.00,VWS V14.01,2017-03-29 09:53:00,
2017-03-29 05:58:00,75.1,66.6,29.98,SE,129,0.0,5.0,75,0.00,,---,0.00,0.00,VWS V14.01,2017-03-29 09:58:00,
2017-03-29 06:03:00,75.1,67.0,29.98,SE,129,0.0,0.0,76,0.00,,---,0.00,0.00,VWS V14.01,2017-03-29 10:03:00,
2017-03-29 06:08:00,75.1,66.6,29.98,SE,128,2.0,6.0,75,0.00,,---,0.00,0.00,VWS V14.01,2017-03-29 10:08:00,
2017-03-29 06:13:00,75.3,66.8,29.98,SE,129,0.0,6.0,75,0.00,,---,0.00,0.00,VWS V14.01,2017-03-29 10:13:00,
2017-03-29 06:18:00,75.3,66.8,29.98,SE,129,2.0,6.0,75,0.00,,---,0.00,0.00,VWS V14.01,2017-03-29 10:18:00,
2017-03-29 06:23:00,75.3,67.2,29.98,SE,129,2.0,6.0,76,0.00,,---,0.00,0.00,VWS V14.01,2017-03-29 10:23:00,
2017-03-29 06:28:00,75.3,67.2,30.00,SE,129,0.0,6.0,76,0.00,,---,0.00,0.00,VWS V14.01,2017-03-29 10:28:00,
2017-03-29 06:33:00,75.2,67.1,30.00,SE,129,0.0,4.0,76,0.00,,---,0.00,0.00,VWS V14.01,2017-03-29 10:33:00,
2017-03-29 06:38:00,75.2,66.7,30.00,SE,129,0.0,4.0,75,0.00,,---,0.00,0.00,VWS V14.01,2017-03-29 10:38:00,
2017-03-29 06:43:00,75.1,66.6,30.00,SE,129,0.0,4.0,75,0.00,,---,0.00,0.00,VWS V14.01,2017-03-29 10:43:00,
2017-03-29 06:48:00,75.1,66.6,30.00,SE,129,1.0,5.0,75,0.00,,---,0.00,0.00,VWS V14.01,2017-03-29 10:48:00,
2017-03-29 06:53:00,75.1,66.2,30.00,SE,128,3.0,5.0,74,0.00,,---,0.00,0.00,VWS V14.01,2017-03-29 10:53:00,
2017-03-29 06:58:00,75.1,66.2,30.00,SE,128,0.0,5.0,74,0.00,,---,0.00,0.00,VWS V14.01,2017-03-29 10:58:00,
2017-03-29 07:03:00,74.9,66.1,30.00,SE,128,0.0,0.0,74,0.00,,---,0.00,0.00,VWS V14.01,2017-03-29 11:03:00,
2017-03-29 07:08:00,74.9,66.1,30.00,SE,128,0.0,0.0,74,0.00,,---,0.00,0.00,VWS V14.01,2017-03-29 11:08:00,
2017-03-29 07:13:00,74.9,65.7,30.00,SE,128,0.0,0.0,73,0.00,,---,0.00,0.00,VWS V14.01,2017-03-29 11:13:00,
2017-03-29 07:18:00,74.9,65.7,30.00,SE,128,0.0,0.0,73,0.00,,---,0.00,0.00,VWS V14.01,2017-03-29 11:18:00,
2017-03-29 07:23:00,74.9,65.7,30.00,SE,128,1.0,3.0,73,0.00,,---,0.00,5.00,VWS V14.01,2017-03-29 11:23:00,
2017-03-29 07:28:00,74.9,65.7,30.00,ESE,108,1.0,3.0,73,0.00,,---,0.00,9.00,VWS V14.01,2017-03-29 11:28:00,
2017-03-29 07:33:00,75.1,66.6,30.01,ESE,108,0.0,2.0,75,0.00,,---,0.00,12.00,VWS V14.01,2017-03-29 11:33:00,
2017-03-29 07:38:00,75.2,66.7,30.01,ESE,108,0.0,5.0,75,0.00,,---,0.00,14.00,VWS V14.01,2017-03-29 11:38:00,
2017-03-29 07:43:00,75.1,66.6,30.01,ESE,108,0.0,5.0,75,0.00,,---,0.00,19.00,VWS V14.01,2017-03-29 11:43:00,
2017-03-29 07:48:00,75.1,66.6,30.01,ESE,108,0.0,5.0,75,0.00,,---,0.00,28.00,VWS V14.01,2017-03-29 11:48:00,
2017-03-29 07:53:00,75.3,66.8,30.01,ESE,108,0.0,5.0,75,0.00,,---,0.00,32.00,VWS V14.01,2017-03-29 11:53:00,
2017-03-29 07:58:00,75.3,66.8,30.01,ESE,108,0.0,5.0,75,0.00,,---,0.00,39.00,VWS V14.01,2017-03-29 11:58:00,
2017-03-29 08:03:00,75.5,67.0,30.01,ESE,108,0.0,4.0,75,0.00,,---,0.00,39.00,VWS V14.01,2017-03-29 12:03:00,
2017-03-29 08:08:00,75.7,66.8,30.01,ESE,108,0.0,4.0,74,0.00,,---,0.00,47.00,VWS V14.01,2017-03-29 12:08:00,
2017-03-29 08:13:00,75.9,67.0,30.01,ESE,108,0.0,4.0,74,0.00,,---,0.00,63.00,VWS V14.01,2017-03-29 12:13:00,
2017-03-29 08:18:00,76.2,67.3,30.02,ESE,108,4.0,4.0,74,0.00,,---,0.00,65.00,VWS V14.01,2017-03-29 12:18:00,
2017-03-29 08:23:00,76.2,66.9,30.02,ESE,108,0.0,4.0,73,0.00,,---,0.00,53.00,VWS V14.01,2017-03-29 12:23:00,
2017-03-29 08:28:00,76.4,67.1,30.03,ESE,108,3.0,5.0,73,0.00,,---,0.00,74.00,VWS V14.01,2017-03-29 12:28:00,
2017-03-29 08:33:00,76.6,66.9,30.03,ESE,109,0.0,7.0,72,0.00,,---,0.00,60.00,VWS V14.01,2017-03-29 12:33:00,
2017-03-29 08:38:00,76.9,67.2,30.03,ESE,109,2.0,7.0,72,0.00,,---,0.00,56.00,VWS V14.01,2017-03-29 12:38:00,
2017-03-29 08:43:00,76.9,67.2,30.03,ESE,109,0.0,7.0,72,0.00,,---,0.00,155.00,VWS V14.01,2017-03-29 12:43:00,
2017-03-29 08:48:00,76.9,66.4,30.03,ESE,109,0.0,7.0,70,0.00,,---,0.00,137.00,VWS V14.01,2017-03-29 12:48:00,
2017-03-29 08:53:00,77.1,67.0,30.03,ESE,110,5.0,8.0,71,0.00,,---,0.00,54.00,VWS V14.01,2017-03-29 12:53:00,
2017-03-29 08:58:00,77.2,67.1,30.03,ESE,111,3.0,8.0,71,0.00,,---,0.00,204.00,VWS V14.01,2017-03-29 12:58:00,
2017-03-29 09:03:00,77.1,67.0,30.03,ESE,111,2.0,3.0,71,0.00,,---,0.00,104.00,VWS V14.01,2017-03-29 13:03:00,
2017-03-29 09:08:00,77.5,66.9,30.03,ESE,111,1.0,5.0,70,0.00,,---,0.00,74.00,VWS V14.01,2017-03-29 13:08:00,
2017-03-29 09:13:00,77.5,66.9,30.03,ESE,109,4.0,9.0,70,0.00,,---,0.00,292.00,VWS V14.01,2017-03-29 13:13:00,
2017-03-29 09:18:00,77.5,66.5,30.03,ESE,113,2.0,9.0,69,0.00,,---,0.00,74.00,VWS V14.01,2017-03-29 13:18:00,
2017-03-29 09:23:00,77.9,67.3,30.03,ESE,113,0.0,9.0,70,0.00,,---,0.00,176.00,VWS V14.01,2017-03-29 13:23:00,
2017-03-29 09:28:00,77.9,66.9,30.04,ESE,113,4.0,9.0,69,0.00,,---,0.00,378.00,VWS V14.01,2017-03-29 13:28:00,
2017-03-29 09:33:00,78.1,66.7,30.04,ESE,117,4.0,8.0,68,0.00,,---,0.00,420.00,VWS V14.01,2017-03-29 13:33:00,
2017-03-29 09:38:00,78.1,66.7,30.04,ESE,117,0.0,8.0,68,0.00,,---,0.00,443.00,VWS V14.01,2017-03-29 13:38:00,
2017-03-29 09:43:00,78.2,67.2,30.04,ESE,123,5.0,9.0,69,0.00,,---,0.00,466.00,VWS V14.01,2017-03-29 13:43:00,
2017-03-29 09:48:00,78.6,66.7,30.04,SE,126,4.0,9.0,67,0.00,,---,0.00,496.00,VWS V14.01,2017-03-29 13:48:00,
2017-03-29 09:53:00,78.6,66.7,30.04,SE,126,2.0,9.0,67,0.00,,---,0.00,508.00,VWS V14.01,2017-03-29 13:53:00,
2017-03-29 09:58:00,78.9,67.0,30.04,SE,126,2.0,9.0,67,0.00,,---,0.00,524.00,VWS V14.01,2017-03-29 13:58:00,
2017-03-29 10:03:00,79.1,67.2,30.04,SE,126,3.0,3.0,67,0.00,,---,0.00,571.00,VWS V14.01,2017-03-29 14:03:00,
2017-03-29 10:08:00,79.0,67.6,30.04,SE,126,3.0,6.0,68,0.00,,---,0.00,592.00,VWS V14.01,2017-03-29 14:08:00,
2017-03-29 10:13:00,79.1,67.6,30.04,SE,127,2.0,6.0,68,0.00,,---,0.00,596.00,VWS V14.01,2017-03-29 14:13:00,
2017-03-29 10:14:00,79.2,67.7,30.04,SE,127,2.0,6.0,68,0.00,,---,0.00,596.00,VWS V14.01,2017-03-29 14:14:00,
2017-03-29 10:19:00,79.3,66.1,30.04,SE,132,3.0,6.0,64,0.00,,---,0.00,587.00,VWS V14.01,2017-03-29 14:19:00,
2017-03-29 10:24:00,79.3,66.1,30.04,SE,134,4.0,8.0,64,0.00,,---,0.00,605.00,VWS V14.01,2017-03-29 14:24:00,
2017-03-29 10:29:00,79.0,67.1,30.05,SE,138,2.0,8.0,67,0.00,,---,0.00,635.00,VWS V14.01,2017-03-29 14:29:00,
2017-03-29 10:34:00,79.8,67.9,30.05,SE,138,1.0,3.0,67,0.00,,---,0.00,633.00,VWS V14.01,2017-03-29 14:34:00,
2017-03-29 10:39:00,80.0,67.6,30.05,SE,138,2.0,5.0,66,0.00,,---,0.00,642.00,VWS V14.01,2017-03-29 14:39:00,
2017-03-29 10:40:00,79.9,67.5,30.05,SE,138,1.0,5.0,66,0.00,,---,0.00,643.00,VWS V14.01,2017-03-29 14:40:00,
2017-03-29 10:45:00,79.9,67.1,30.06,SE,138,0.0,5.0,65,0.00,,---,0.00,657.00,VWS V14.01,2017-03-29 14:45:00,
2017-03-29 10:50:00,80.0,67.2,30.06,SE,138,3.0,5.0,65,0.00,,---,0.00,675.00,VWS V14.01,2017-03-29 14:50:00,
2017-03-29 10:55:00,80.1,66.8,30.06,SE,138,0.0,6.0,64,0.00,,---,0.00,691.00,VWS V14.01,2017-03-29 14:55:00,
2017-03-29 10:59:00,80.2,67.4,30.06,SE,138,0.0,0.0,65,0.00,,---,0.00,705.00,VWS V14.01,2017-03-29 14:59:00,
2017-03-29 11:04:00,80.3,67.0,30.06,SE,138,0.0,6.0,64,0.00,,---,0.00,717.00,VWS V14.01,2017-03-29 15:04:00,
2017-03-29 11:09:00,80.5,67.2,30.06,SE,139,3.0,8.0,64,0.00,,---,0.00,726.00,VWS V14.01,2017-03-29 15:09:00,
2017-03-29 11:14:00,80.3,67.0,30.07,SE,140,4.0,8.0,64,0.00,,---,0.00,740.00,VWS V14.01,2017-03-29 15:14:00,
2017-03-29 11:19:00,80.3,67.0,30.07,SE,140,4.0,8.0,64,0.00,,---,0.00,751.00,VWS V14.01,2017-03-29 15:19:00,
2017-03-29 11:24:00,80.3,67.5,30.07,SE,140,0.0,8.0,65,0.00,,---,0.00,765.00,VWS V14.01,2017-03-29 15:24:00,
2017-03-29 11:29:00,81.0,67.7,30.07,SE,140,2.0,2.0,64,0.00,,---,0.00,777.00,VWS V14.01,2017-03-29 15:29:00,
2017-03-29 11:34:00,81.3,67.5,30.07,SE,140,0.0,5.0,63,0.00,,---,0.00,788.00,VWS V14.01,2017-03-29 15:34:00,
2017-03-29 11:39:00,81.1,67.3,30.07,SE,140,2.0,5.0,63,0.00,,---,0.00,803.00,VWS V14.01,2017-03-29 15:39:00,
2017-03-29 11:44:00,80.6,66.8,30.07,SE,140,2.0,5.0,63,0.00,,---,0.00,814.00,VWS V14.01,2017-03-29 15:44:00,
2017-03-29 11:49:00,80.9,67.6,30.07,SE,140,0.0,5.0,64,0.00,,---,0.00,828.00,VWS V14.01,2017-03-29 15:49:00,
2017-03-29 11:54:00,81.1,67.3,30.07,SE,140,1.0,5.0,63,0.00,,---,0.00,835.00,VWS V14.01,2017-03-29 15:54:00,
2017-03-29 11:59:00,81.5,68.2,30.07,SE,140,0.0,0.0,64,0.00,,---,0.00,851.00,VWS V14.01,2017-03-29 15:59:00,
2017-03-29 12:04:00,82.0,68.2,30.07,SE,140,0.0,2.0,63,0.00,,---,0.00,872.00,VWS V14.01,2017-03-29 16:04:00,
2017-03-29 12:05:00,82.1,68.7,30.07,SE,140,2.0,2.0,64,0.00,,---,0.00,872.00,VWS V14.01,2017-03-29 16:05:00,
2017-03-29 12:10:00,83.1,68.3,30.07,SE,140,0.0,6.0,61,0.00,,---,0.00,907.00,VWS V14.01,2017-03-29 16:10:00,
2017-03-29 12:15:00,82.5,68.2,30.07,SE,140,1.0,6.0,62,0.00,,---,0.00,916.00,VWS V14.01,2017-03-29 16:15:00,
2017-03-29 12:20:00,81.9,68.1,30.07,SE,140,3.0,6.0,63,0.00,,---,0.00,905.00,VWS V14.01,2017-03-29 16:20:00,
2017-03-29 12:25:00,82.3,68.9,30.07,SE,140,2.0,6.0,64,0.00,,---,0.00,902.00,VWS V14.01,2017-03-29 16:25:00,
2017-03-29 12:30:00,82.3,68.0,30.06,SE,140,3.0,4.0,62,0.00,,---,0.00,902.00,VWS V14.01,2017-03-29 16:30:00,
2017-03-29 12:35:00,82.6,68.3,30.06,SE,140,2.0,5.0,62,0.00,,---,0.00,912.00,VWS V14.01,2017-03-29 16:35:00,
2017-03-29 12:40:00,82.1,68.3,30.06,SE,140,0.0,5.0,63,0.00,,---,0.00,912.00,VWS V14.01,2017-03-29 16:40:00,
2017-03-29 12:45:00,81.6,67.8,30.06,SE,140,4.0,6.0,63,0.00,,---,0.00,932.00,VWS V14.01,2017-03-29 16:45:00,
2017-03-29 12:50:00,81.7,67.9,30.06,SE,140,0.0,6.0,63,0.00,,---,0.00,932.00,VWS V14.01,2017-03-29 16:50:00,
2017-03-29 12:55:00,82.2,67.9,30.06,SE,140,0.0,6.0,62,0.00,,---,0.00,928.00,VWS V14.01,2017-03-29 16:55:00,
2017-03-29 13:00:00,82.1,67.8,30.06,SE,140,3.0,4.0,62,0.00,,---,0.00,926.00,VWS V14.01,2017-03-29 17:00:00,
2017-03-29 13:05:00,82.5,68.2,30.06,SE,140,0.0,5.0,62,0.00,,---,0.00,930.00,VWS V14.01,2017-03-29 17:05:00,
2017-03-29 13:10:00,82.9,68.1,30.06,SE,140,0.0,5.0,61,0.00,,---,0.00,935.00,VWS V14.01,2017-03-29 17:10:00,
2017-03-29 13:15:00,82.1,67.3,30.05,SE,140,0.0,6.0,61,0.00,,---,0.00,939.00,VWS V14.01,2017-03-29 17:15:00,
2017-03-29 13:20:00,81.7,67.4,30.05,SE,140,1.0,7.0,62,0.00,,---,0.00,940.00,VWS V14.01,2017-03-29 17:20:00,
2017-03-29 13:25:00,82.3,67.5,30.05,SE,140,0.0,7.0,61,0.00,,---,0.00,942.00,VWS V14.01,2017-03-29 17:25:00,
2017-03-29 13:30:00,82.2,67.9,30.05,SE,140,0.0,3.0,62,0.00,,---,0.00,946.00,VWS V14.01,2017-03-29 17:30:00,
2017-03-29 13:35:00,82.0,67.2,30.05,SE,138,0.0,6.0,61,0.00,,---,0.00,956.00,VWS V14.01,2017-03-29 17:35:00,
2017-03-29 13:40:00,82.4,68.1,30.05,SE,138,1.0,7.0,62,0.00,,---,0.00,930.00,VWS V14.01,2017-03-29 17:40:00,
2017-03-29 13:45:00,82.1,67.8,30.04,SE,140,0.0,7.0,62,0.00,,---,0.00,953.00,VWS V14.01,2017-03-29 17:45:00,
2017-03-29 13:50:00,82.9,68.6,30.04,SE,140,0.0,7.0,62,0.00,,---,0.00,946.00,VWS V14.01,2017-03-29 17:50:00,
2017-03-29 13:55:00,83.2,67.4,30.04,SE,139,0.0,7.0,59,0.00,,---,0.00,946.00,VWS V14.01,2017-03-29 17:55:00,
2017-03-29 14:00:00,82.5,67.7,30.04,SE,139,0.0,0.0,61,0.00,,---,0.00,940.00,VWS V14.01,2017-03-29 18:00:00,
2017-03-29 14:05:00,82.3,67.5,30.04,SE,140,0.0,6.0,61,0.00,,---,0.00,942.00,VWS V14.01,2017-03-29 18:05:00,
2017-03-29 14:10:00,82.1,66.8,30.04,SE,140,0.0,6.0,60,0.00,,---,0.00,940.00,VWS V14.01,2017-03-29 18:10:00,
2017-03-29 14:15:00,82.0,67.2,30.04,SE,140,2.0,6.0,61,0.00,,---,0.00,932.00,VWS V14.01,2017-03-29 18:15:00,
2017-03-29 14:20:00,82.5,67.7,30.04,SE,140,0.0,6.0,61,0.00,,---,0.00,928.00,VWS V14.01,2017-03-29 18:20:00,
2017-03-29 14:25:00,82.7,67.9,30.04,SE,140,0.0,6.0,61,0.00,,---,0.00,923.00,VWS V14.01,2017-03-29 18:25:00,
2017-03-29 14:30:00,82.8,68.0,30.03,SE,140,1.0,4.0,61,0.00,,---,0.00,919.00,VWS V14.01,2017-03-29 18:30:00,
2017-03-29 14:35:00,82.5,67.2,30.03,SE,140,0.0,6.0,60,0.00,,---,0.00,911.00,VWS V14.01,2017-03-29 18:35:00,
2017-03-29 14:40:00,82.0,68.6,30.03,SE,139,0.0,6.0,64,0.00,,---,0.00,904.00,VWS V14.01,2017-03-29 18:40:00,
2017-03-29 14:45:00,81.9,67.6,30.02,SE,138,0.0,8.0,62,0.00,,---,0.00,895.00,VWS V14.01,2017-03-29 18:45:00,
2017-03-29 14:50:00,81.7,67.4,30.02,SE,138,0.0,8.0,62,0.00,,---,0.00,886.00,VWS V14.01,2017-03-29 18:50:00,
2017-03-29 14:55:00,82.2,67.9,30.02,SE,137,4.0,8.0,62,0.00,,---,0.00,881.00,VWS V14.01,2017-03-29 18:55:00,
2017-03-29 15:00:00,81.6,67.3,30.02,SE,138,1.0,4.0,62,0.00,,---,0.00,877.00,VWS V14.01,2017-03-29 19:00:00,
2017-03-29 15:05:00,81.9,68.5,30.02,SE,142,0.0,10.0,64,0.00,,---,0.00,868.00,VWS V14.01,2017-03-29 19:05:00,
2017-03-29 15:10:00,81.5,68.2,30.02,SE,141,0.0,10.0,64,0.00,,---,0.00,858.00,VWS V14.01,2017-03-29 19:10:00,
2017-03-29 15:15:00,82.4,69.0,30.01,SE,142,6.0,10.0,64,0.00,,---,0.00,853.00,VWS V14.01,2017-03-29 19:15:00,
2017-03-29 15:20:00,81.8,68.4,30.01,SE,142,0.0,10.0,64,0.00,,---,0.00,854.00,VWS V14.01,2017-03-29 19:20:00,
2017-03-29 15:25:00,82.3,68.5,30.01,SE,141,4.0,10.0,63,0.00,,---,0.00,831.00,VWS V14.01,2017-03-29 19:25:00,
2017-03-29 15:30:00,81.7,68.3,30.01,SE,142,0.0,3.0,64,0.00,,---,0.00,817.00,VWS V14.01,2017-03-29 19:30:00,
2017-03-29 15:35:00,82.3,68.0,30.01,SE,142,3.0,7.0,62,0.00,,---,0.00,802.00,VWS V14.01,2017-03-29 19:35:00,
2017-03-29 15:40:00,82.1,67.8,30.01,SE,140,0.0,7.0,62,0.00,,---,0.00,796.00,VWS V14.01,2017-03-29 19:40:00,
2017-03-29 15:45:00,81.6,67.8,30.01,SE,140,0.0,7.0,63,0.00,,---,0.00,782.00,VWS V14.01,2017-03-29 19:45:00,
2017-03-29 15:50:00,82.6,67.3,30.01,SE,140,0.0,7.0,60,0.00,,---,0.00,768.00,VWS V14.01,2017-03-29 19:50:00,
2017-03-29 15:55:00,82.0,67.7,30.01,SE,140,3.0,7.0,62,0.00,,---,0.00,754.00,VWS V14.01,2017-03-29 19:55:00,
2017-03-29 16:00:00,81.8,67.1,30.00,SE,140,6.0,7.0,61,0.00,,---,0.00,745.00,VWS V14.01,2017-03-29 20:00:00,
2017-03-29 16:05:00,81.3,67.1,30.00,SE,140,4.0,7.0,62,0.00,,---,0.00,731.00,VWS V14.01,2017-03-29 20:05:00,
2017-03-29 16:10:00,81.3,68.0,30.00,SE,139,1.0,7.0,64,0.00,,---,0.00,717.00,VWS V14.01,2017-03-29 20:10:00,
2017-03-29 16:15:00,81.3,68.0,30.00,SE,139,6.0,7.0,64,0.00,,---,0.00,703.00,VWS V14.01,2017-03-29 20:15:00,
2017-03-29 16:20:00,81.0,67.7,30.00,SE,138,2.0,7.0,64,0.00,,---,0.00,682.00,VWS V14.01,2017-03-29 20:20:00,
2017-03-29 16:23:00,81.1,67.8,30.00,SE,138,1.0,7.0,64,0.00,,---,0.00,675.00,VWS V14.01,2017-03-29 20:23:00,
2017-03-29 16:28:00,81.5,68.2,30.00,SE,139,1.0,7.0,64,0.00,,---,0.00,657.00,VWS V14.01,2017-03-29 20:28:00,
2017-03-29 16:33:00,81.2,67.9,30.00,SE,139,6.0,6.0,64,0.00,,---,0.00,649.00,VWS V14.01,2017-03-29 20:33:00,